Staunton, VA

7:44 AM EDT on March 23, 2017 (GMT -0400)
Shenandoah Valley Regional

Weather History for KSHD - January, 2013

Change the Weather History Date:

Monday, January 14, 2013

  Actual Average Record
Temperature  
Mean Temperature 52 °F -  
Max Temperature 64 °F 42 °F 71 °F (2007)
Min Temperature 41 °F 24 °F 10 °F (1997)
Degree Days  
Heating Degree Days 12    
Growing Degree Days 2 (Base 50)    
Moisture  
Dew Point 48 °F    
Average Humidity 75    
Maximum Humidity 93    
Minimum Humidity 60    
Precipitation  
Precipitation 0.20 in - - ()
Sea Level Pressure  
Sea Level Pressure 30.14 in    
Wind  
Wind Speed 7 mph (NE)    
Max Wind Speed 14 mph    
Max Gust Speed 20 mph    
Visibility 9 miles    
Events Rain    
Averages and records for this station are not official NWS values.
T = Trace of Precipitation, MM = Missing Value Source: NWS Daily Summary

Daily Weather History Graph

Daily Weather History Graph

Search for Another Location

Airport or City:

Trip Planner

Search our weather history database for the weather conditions in past years. The results will help you decide how hot, cold, wet, or windy it might be!

Date:

Astronomy

Jan. 14, 2013 Rise Set
Actual Time 7:31 AM EST 5:18 PM EST
Civil Twilight 7:02 AM EST 5:47 PM EST
Nautical Twilight 6:29 AM EST 6:20 PM EST
Astronomical Twilight 5:58 AM EST 6:51 PM EST
Moon 9:07 AM EST (1/14) 8:58 PM EST (1/14)
Length of Visible Light 10h 45m
Length of Day
9h 47m
Waxing Crescent, 11% of the Moon is Illuminated
Jan 14
Waxing Crescent
Jan 18
First Quarter
Jan 26
Full
Feb 3
Last Quarter
Feb 10
New

Hourly Weather History & Observations

Time (EST) Temp. Windchill Dew Point Humidity Pressure Visibility Wind Dir Wind Speed Gust Speed Precip Events Conditions
12:15 AM 58.3 °F - 54.3 °F 87% 30.02 in 10.0 mi SSW 3.5 mph - N/A   Scattered Clouds
12:35 AM 58.5 °F - 54.9 °F 88% 30.03 in 10.0 mi SSW 5.8 mph - N/A   Mostly Cloudy
12:55 AM 59.0 °F - 54.7 °F 86% 30.04 in 10.0 mi SW 4.6 mph - N/A   Overcast
1:15 AM 59.2 °F - 54.9 °F 86% 30.04 in 10.0 mi South 4.6 mph - N/A   Mostly Cloudy
1:35 AM 59.9 °F - 55.0 °F 84% 30.04 in 10.0 mi South 3.5 mph - N/A   Mostly Cloudy
1:55 AM 60.3 °F - 55.0 °F 83% 30.05 in 10.0 mi Calm Calm - N/A   Overcast
2:15 AM 60.8 °F - 55.2 °F 82% 30.05 in 10.0 mi SSW 5.8 mph - N/A   Mostly Cloudy
2:35 AM 64.0 °F - 55.4 °F 73% 30.03 in 10.0 mi South 10.4 mph - N/A   Mostly Cloudy
2:55 AM 64.9 °F - 55.2 °F 71% 30.02 in 10.0 mi SSW 8.1 mph - N/A   Overcast
3:15 AM 64.0 °F - 55.4 °F 73% 30.02 in 10.0 mi SW 8.1 mph - N/A   Mostly Cloudy
3:55 AM 63.5 °F - 55.4 °F 75% 30.03 in 10.0 mi SW 9.2 mph - N/A   Clear
4:15 AM 64.4 °F - 55.4 °F 73% 30.01 in 10.0 mi SSW 8.1 mph - N/A   Scattered Clouds
4:35 AM 63.5 °F - 55.4 °F 75% 30.00 in 10.0 mi South 8.1 mph - N/A   Scattered Clouds
4:55 AM 63.9 °F - 55.2 °F 73% 29.99 in 10.0 mi South 9.2 mph - N/A   Scattered Clouds
5:15 AM 62.8 °F - 54.9 °F 75% 30.01 in 10.0 mi West 3.5 mph - N/A   Scattered Clouds
5:35 AM 62.4 °F - 54.7 °F 76% 30.02 in 10.0 mi SW 3.5 mph - N/A   Mostly Cloudy
5:55 AM 63.9 °F - 55.4 °F 74% 30.02 in 10.0 mi South 6.9 mph - N/A   Overcast
6:15 AM 63.0 °F - 55.4 °F 76% 30.04 in 10.0 mi WSW 4.6 mph - N/A   Scattered Clouds
6:35 AM 62.4 °F - 55.2 °F 77% 30.05 in 10.0 mi SSW 3.5 mph - N/A   Clear
6:55 AM 63.7 °F - 55.8 °F 75% 30.07 in 10.0 mi SSW 8.1 mph - N/A   Scattered Clouds
7:15 AM 62.6 °F - 55.4 °F 77% 30.07 in 10.0 mi South 3.5 mph - N/A   Mostly Cloudy
7:35 AM 62.6 °F - 55.8 °F 78% 30.06 in 10.0 mi SSE 4.6 mph - N/A   Overcast
7:55 AM 61.3 °F - 55.6 °F 81% 30.09 in 10.0 mi Calm Calm - N/A   Overcast
8:15 AM 62.4 °F - 56.3 °F 80% 30.10 in 10.0 mi SSW 5.8 mph - N/A   Overcast
8:35 AM 62.8 °F - 54.9 °F 75% 30.12 in 10.0 mi NNW 5.8 mph - N/A   Overcast
8:55 AM 61.9 °F - 53.1 °F 73% 30.13 in 10.0 mi NNW 4.6 mph - N/A   Overcast
9:15 AM 61.7 °F - 49.5 °F 64% 30.14 in 10.0 mi North 4.6 mph - N/A   Overcast
9:35 AM 60.8 °F - 48.7 °F 64% 30.14 in 10.0 mi NNW 8.1 mph - N/A   Overcast
9:55 AM 60.8 °F - 48.2 °F 63% 30.15 in 10.0 mi NNE 8.1 mph - N/A   Overcast
10:15 AM 60.1 °F - 47.5 °F 63% 30.17 in 10.0 mi NNE 13.8 mph - N/A   Overcast
10:35 AM 58.3 °F - 46.6 °F 65% 30.18 in 10.0 mi NNE 10.4 mph - N/A   Overcast
10:55 AM 58.1 °F - 46.0 °F 64% 30.18 in 10.0 mi NNE 9.2 mph - N/A   Overcast
11:15 AM 58.1 °F - 45.9 °F 64% 30.17 in 10.0 mi NNE 9.2 mph - N/A   Overcast
11:35 AM 57.9 °F - 45.1 °F 62% 30.15 in 10.0 mi NNE 11.5 mph - N/A   Overcast
11:55 AM 58.1 °F - 44.6 °F 61% 30.15 in 10.0 mi NNE 11.5 mph - N/A   Overcast
12:15 PM 57.9 °F - 43.9 °F 60% 30.15 in 10.0 mi NNE 11.5 mph - N/A   Overcast
12:35 PM 57.6 °F - 44.1 °F 61% 30.14 in 10.0 mi NNE 10.4 mph - N/A   Overcast
12:55 PM 57.4 °F - 44.1 °F 61% 30.13 in 10.0 mi NE 10.4 mph - N/A   Overcast
1:15 PM 57.7 °F - 43.9 °F 60% 30.14 in 10.0 mi NNE 9.2 mph - N/A   Overcast
1:35 PM 57.6 °F - 43.7 °F 60% 30.14 in 10.0 mi NNE 6.9 mph - N/A   Overcast
1:55 PM 57.6 °F - 43.7 °F 60% 30.13 in 10.0 mi NE 6.9 mph - N/A   Overcast
2:15 PM 57.4 °F - 43.5 °F 60% 30.15 in 10.0 mi NNE 9.2 mph - N/A   Overcast
2:35 PM 57.2 °F - 43.3 °F 60% 30.14 in 10.0 mi NE 9.2 mph - N/A   Overcast
3:15 PM 56.3 °F - 43.0 °F 61% 30.17 in 10.0 mi North 8.1 mph - N/A   Overcast
3:55 PM 55.6 °F - 43.2 °F 63% 30.16 in 10.0 mi NNE 5.8 mph - N/A   Overcast
4:15 PM 54.9 °F - 43.7 °F 66% 30.16 in 10.0 mi ENE 10.4 mph - N/A   Overcast
4:35 PM 54.0 °F - 43.5 °F 68% 30.14 in 10.0 mi East 9.2 mph - N/A   Overcast
4:55 PM 53.8 °F - 43.2 °F 67% 30.17 in 10.0 mi NNE 6.9 mph - N/A   Overcast
5:15 PM 53.1 °F - 42.3 °F 67% 30.15 in 10.0 mi East 8.1 mph - N/A   Overcast
5:35 PM 52.7 °F - 42.1 °F 67% 30.18 in 10.0 mi NE 8.1 mph - N/A   Overcast
5:55 PM 52.7 °F - 42.3 °F 68% 30.22 in 10.0 mi North 6.9 mph - N/A   Overcast
6:15 PM 52.5 °F - 42.8 °F 70% 30.21 in 10.0 mi NNE 10.4 mph - N/A   Light Drizzle
6:35 PM 50.5 °F - 43.3 °F 76% 30.22 in 10.0 mi NE 9.2 mph - N/A   Drizzle
6:55 PM 49.3 °F - 42.8 °F 78% 30.24 in 10.0 mi NNE 11.5 mph 16.1 mph N/A Rain Rain
7:15 PM 48.4 °F - 43.3 °F 83% 30.26 in 10.0 mi NNE 6.9 mph - 0.02 in Rain Light Rain
7:35 PM 47.5 °F - 42.6 °F 83% 30.27 in 7.0 mi NNE 13.8 mph 17.3 mph 0.05 in Rain Rain
7:55 PM 46.0 °F 41.4 °F 42.1 °F 86% 30.27 in 7.0 mi NNE 9.2 mph - 0.09 in Rain Light Rain
8:15 PM 45.3 °F 40.6 °F 42.1 °F 88% 30.26 in 7.0 mi NE 9.2 mph 19.6 mph 0.02 in Rain Light Rain
8:55 PM 43.7 °F 37.7 °F 40.8 °F 90% 30.27 in 7.0 mi NE 11.5 mph - 0.03 in   Drizzle
9:15 PM 43.7 °F 38.1 °F 41.0 °F 90% 30.28 in 7.0 mi NE 10.4 mph - 0.01 in Rain Light Rain
9:35 PM 43.2 °F 38.4 °F 40.5 °F 90% 30.28 in 7.0 mi NE 8.1 mph - 0.02 in   Drizzle
9:55 PM 42.8 °F 36.6 °F 40.5 °F 91% 30.26 in 7.0 mi NE 11.5 mph - 0.02 in   Drizzle
10:15 PM 42.4 °F 37.5 °F 40.1 °F 91% 30.28 in 7.0 mi NE 8.1 mph - 0.01 in Rain Light Rain
10:35 PM 42.1 °F 36.1 °F 39.6 °F 91% 30.29 in 7.0 mi NE 10.4 mph - 0.01 in Rain Light Rain
10:55 PM 41.9 °F 36.9 °F 39.6 °F 91% 30.30 in 4.0 mi NE 8.1 mph - 0.02 in Rain Rain
11:15 PM 41.5 °F 35.9 °F 39.4 °F 92% 30.30 in 3.0 mi NE 9.2 mph - 0.01 in Rain Rain
11:35 PM 41.4 °F 36.8 °F 39.4 °F 93% 30.28 in 5.0 mi ENE 6.9 mph - 0.01 in   Drizzle
11:55 PM 41.0 °F 35.8 °F 39.2 °F 93% 30.27 in 5.0 mi ENE 8.1 mph - 0.04 in Rain Light Rain